| time (UTC) | temp F | wind direction | speed knots | gust knots | rain 1hr in | rain 24hr in | rain mn in | humidity % | barometer mb |
| 20260506024439 | 68 | 292 | 3.5 | 8.7 | 0.00 | 0.00 | 0.00 | 71 | 991.5 |
| 20260506023931 | 68 | 330 | 2.6 | 7.8 | 0.00 | 0.00 | 0.00 | 71 | 991.5 |
| 20260506023431 | 68 | 320 | 4.3 | 6.1 | 0.00 | 0.00 | 0.00 | 70 | 991.2 |
| 20260506022931 | 68 | 329 | 4.3 | 6.1 | 0.00 | 0.00 | 0.00 | 70 | 991.2 |
| 20260506022431 | 68 | 333 | 5.2 | 8.7 | 0.00 | 0.00 | 0.00 | 69 | 990.9 |
| 20260506021931 | 68 | 333 | 2.6 | 6.1 | 0.00 | 0.00 | 0.00 | 69 | 990.9 |
| 20260506021432 | 69 | 311 | 2.6 | 4.3 | 0.00 | 0.00 | 0.00 | 69 | 990.9 |
| 20260506020931 | 69 | 323 | 3.5 | 7.0 | 0.00 | 0.00 | 0.00 | 68 | 990.5 |
| 20260506020431 | 69 | 318 | 7.8 | 7.8 | 0.00 | 0.00 | 0.00 | 68 | 990.9 |
| 20260506015932 | 69 | 351 | 2.6 | 7.0 | 0.00 | 0.00 | 0.00 | 68 | 990.5 |
| 20260506015431 | 69 | 321 | 3.5 | 6.1 | 0.00 | 0.00 | 0.00 | 68 | 990.2 |
| 20260506014931 | 69 | 12 | 2.6 | 7.0 | 0.00 | 0.00 | 0.00 | 68 | 989.8 |
| 20260506014431 | 69 | 296 | 1.7 | 6.1 | 0.00 | 0.00 | 0.00 | 68 | 990.2 |
| 20260506013931 | 69 | 354 | 3.5 | 6.1 | 0.00 | 0.00 | 0.00 | 68 | 990.2 |
| 20260506013431 | 69 | 320 | 3.5 | 6.1 | 0.00 | 0.00 | 0.00 | 68 | 989.8 |
| 20260506012932 | 70 | 293 | 2.6 | 7.8 | 0.00 | 0.00 | 0.00 | 67 | 989.8 |
| 20260506012431 | 70 | 341 | 2.6 | 9.6 | 0.00 | 0.00 | 0.00 | 67 | 989.8 |
| 20260506011931 | 71 | 9 | 3.5 | 5.2 | 0.00 | 0.00 | 0.00 | 66 | 990.2 |
| 20260506011431 | 71 | 4 | 3.5 | 6.1 | 0.00 | 0.00 | 0.00 | 66 | 989.8 |
| 20260506010931 | 71 | 319 | 0.9 | 3.5 | 0.00 | 0.00 | 0.00 | 66 | 989.8 |
| 20260506010432 | 72 | 321 | 2.6 | 3.5 | 0.00 | 0.00 | 0.00 | 65 | 989.8 |
| 20260506005932 | 72 | 16 | 2.6 | 7.0 | 0.00 | 0.00 | 0.00 | 64 | 989.5 |
| 20260506005431 | 72 | 306 | 4.3 | 9.6 | 0.00 | 0.00 | 0.00 | 64 | 989.5 |
| 20260506004932 | 73 | 0 | 6.1 | 10.4 | 0.00 | 0.00 | 0.00 | 65 | 989.5 |
| 20260506004432 | 73 | 318 | 1.7 | 7.8 | 0.00 | 0.00 | 0.00 | 66 | 989.5 |
| 20260506003932 | 73 | 7 | 2.6 | 6.1 | 0.00 | 0.00 | 0.00 | 65 | 988.8 |
| 20260506003432 | 73 | 347 | 2.6 | 8.7 | 0.00 | 0.00 | 0.00 | 65 | 988.5 |
| 20260506002933 | 73 | 309 | 6.1 | 7.8 | 0.00 | 0.00 | 0.00 | 64 | 988.8 |
| 20260506002431 | 73 | 310 | 5.2 | 7.8 | 0.00 | 0.00 | 0.00 | 64 | 988.8 |
| 20260506001932 | 73 | 11 | 5.2 | 6.1 | 0.00 | 0.00 | 0.00 | 65 | 988.8 |
| 20260506001431 | 74 | 321 | 5.2 | 9.6 | 0.00 | 0.00 | 0.00 | 64 | 988.5 |
| 20260506000931 | 74 | 332 | 5.2 | 11.3 | 0.00 | 0.00 | 0.00 | 64 | 988.5 |
| 20260506000431 | 75 | 337 | 6.1 | 13.0 | 0.00 | 0.00 | 0.00 | 63 | 988.5 |
| 20260505235931 | 75 | 300 | 3.5 | 7.8 | 0.00 | 0.00 | 0.00 | 63 | 988.5 |
| 20260505235432 | 76 | 318 | 5.2 | 11.3 | 0.00 | 0.00 | 0.00 | 62 | 988.5 |
| 20260505234931 | 77 | 1 | 4.3 | 12.2 | 0.00 | 0.00 | 0.00 | 60 | 988.5 |
| 20260505234431 | 78 | 303 | 7.0 | 7.8 | 0.00 | 0.00 | 0.00 | 60 | 988.5 |
| 20260505233932 | 78 | 290 | 6.1 | 8.7 | 0.00 | 0.00 | 0.00 | 60 | 988.1 |
| 20260505233433 | 78 | 307 | 5.2 | 7.8 | 0.00 | 0.00 | 0.00 | 60 | 988.1 |
| 20260505232931 | 79 | 322 | 7.8 | 10.4 | 0.00 | 0.00 | 0.00 | 59 | 988.1 |
| 20260505232431 | 79 | 295 | 3.5 | 7.0 | 0.00 | 0.00 | 0.00 | 59 | 988.5 |
| 20260505231931 | 80 | 315 | 3.5 | 11.3 | 0.00 | 0.00 | 0.00 | 59 | 988.5 |
| 20260505231431 | 80 | 281 | 5.2 | 12.2 | 0.00 | 0.00 | 0.00 | 57 | 988.1 |
| 20260505230931 | 81 | 351 | 4.3 | 9.6 | 0.00 | 0.00 | 0.00 | 56 | 987.8 |
| 20260505230431 | 82 | 310 | 6.1 | 9.6 | 0.00 | 0.00 | 0.00 | 55 | 987.8 |
| 20260505225932 | 82 | 303 | 6.1 | 11.3 | 0.00 | 0.00 | 0.00 | 55 | 987.8 |
| 20260505225431 | 82 | 305 | 4.3 | 8.7 | 0.00 | 0.00 | 0.00 | 54 | 987.8 |
| 20260505224931 | 82 | 311 | 7.0 | 9.6 | 0.00 | 0.00 | 0.00 | 53 | 987.8 |
| 20260505224431 | 83 | 315 | 6.1 | 10.4 | 0.00 | 0.00 | 0.00 | 53 | 987.5 |
| 20260505223932 | 83 | 283 | 3.5 | 10.4 | 0.00 | 0.00 | 0.00 | 53 | 987.5 |
| 20260505223431 | 84 | 308 | 4.3 | 9.6 | 0.00 | 0.00 | 0.00 | 52 | 987.5 |
| 20260505222931 | 84 | 315 | 5.2 | 8.7 | 0.00 | 0.00 | 0.00 | 50 | 987.5 |
| 20260505222431 | 84 | 319 | 6.1 | 7.8 | 0.00 | 0.00 | 0.00 | 48 | 987.5 |
| 20260505221933 | 84 | 295 | 2.6 | 7.8 | 0.00 | 0.00 | 0.00 | 47 | 987.5 |
| 20260505221432 | 84 | 289 | 4.3 | 11.3 | 0.00 | 0.00 | 0.00 | 47 | 987.1 |
| 20260505220931 | 85 | 281 | 7.8 | 9.6 | 0.00 | 0.00 | 0.00 | 47 | 987.5 |
| 20260505220431 | 85 | 318 | 5.2 | 7.8 | 0.00 | 0.00 | 0.00 | 45 | 987.1 |
| 20260505215932 | 86 | 297 | 6.1 | 10.4 | 0.00 | 0.00 | 0.00 | 45 | 986.8 |
| 20260505215431 | 86 | 304 | 2.6 | 7.8 | 0.00 | 0.00 | 0.00 | 47 | 987.1 |
| 20260505214932 | 86 | 314 | 8.7 | 9.6 | 0.00 | 0.00 | 0.00 | 46 | 987.1 |
| 20260505214431 | 88 | 341 | 4.3 | 11.3 | 0.00 | 0.00 | 0.00 | 44 | 987.5 |
| 20260505213931 | 88 | 307 | 6.1 | 7.8 | 0.00 | 0.00 | 0.00 | 47 | 987.1 |
| 20260505213432 | 88 | 284 | 6.1 | 7.0 | 0.00 | 0.00 | 0.00 | 47 | 987.1 |
| 20260505212931 | 88 | 272 | 3.5 | 6.1 | 0.00 | 0.00 | 0.00 | 48 | 987.1 |
| 20260505212431 | 88 | 268 | 3.5 | 5.2 | 0.00 | 0.00 | 0.00 | 47 | 986.8 |
| 20260505211931 | 88 | 294 | 3.5 | 5.2 | 0.00 | 0.00 | 0.00 | 48 | 987.1 |
| 20260505211431 | 88 | 285 | 3.5 | 7.8 | 0.00 | 0.00 | 0.00 | 46 | 987.1 |
| 20260505210931 | 88 | 306 | 6.1 | 9.6 | 0.00 | 0.00 | 0.00 | 47 | 987.5 |
| 20260505210432 | 88 | 270 | 5.2 | 9.6 | 0.00 | 0.00 | 0.00 | 47 | 987.5 |
| 20260505205932 | 89 | 260 | 7.8 | 9.6 | 0.00 | 0.00 | 0.00 | 48 | 987.5 |
| 20260505205431 | 88 | 258 | 5.2 | 7.8 | 0.00 | 0.00 | 0.00 | 48 | 987.5 |
| 20260505204931 | 88 | 265 | 4.3 | 11.3 | 0.00 | 0.00 | 0.00 | 46 | 987.5 |
| 20260505204432 | 89 | 285 | 7.8 | 8.7 | 0.00 | 0.00 | 0.00 | 48 | 987.1 |
| 20260505203933 | 88 | 275 | 2.6 | 5.2 | 0.00 | 0.00 | 0.00 | 49 | 987.5 |
| 20260505203431 | 88 | 282 | 7.8 | 7.8 | 0.00 | 0.00 | 0.00 | 48 | 987.8 |
| 20260505202932 | 88 | 273 | 7.8 | 8.7 | 0.00 | 0.00 | 0.00 | 50 | 987.5 |
| 20260505202431 | 88 | 260 | 6.1 | 8.7 | 0.00 | 0.00 | 0.00 | 50 | 987.5 |
| 20260505201931 | 88 | 281 | 7.8 | 10.4 | 0.00 | 0.00 | 0.00 | 52 | 987.8 |
| 20260505201431 | 87 | 267 | 3.5 | 7.8 | 0.00 | 0.00 | 0.00 | 53 | 987.8 |
| 20260505200931 | 88 | 262 | 4.3 | 8.7 | 0.00 | 0.00 | 0.00 | 50 | 987.8 |
| 20260505200431 | 87 | 247 | 2.6 | 4.3 | 0.00 | 0.00 | 0.00 | 53 | 987.8 |
| 20260505195931 | 87 | 271 | 7.0 | 7.8 | 0.00 | 0.00 | 0.00 | 52 | 988.1 |
| 20260505195431 | 87 | 287 | 7.0 | 7.8 | 0.00 | 0.00 | 0.00 | 53 | 987.8 |
| 20260505194932 | 87 | 248 | 2.6 | 5.2 | 0.00 | 0.00 | 0.00 | 54 | 987.8 |
| 20260505194432 | 87 | 286 | 3.5 | 6.1 | 0.00 | 0.00 | 0.00 | 55 | 987.8 |
| 20260505193931 | 86 | 203 | 2.6 | 4.3 | 0.00 | 0.00 | 0.00 | 56 | 988.1 |
| 20260505193433 | 86 | 258 | 2.6 | 6.1 | 0.00 | 0.00 | 0.00 | 57 | 988.1 |
| 20260505192931 | 86 | 245 | 4.3 | 5.2 | 0.00 | 0.00 | 0.00 | 58 | 988.1 |
| 20260505192431 | 85 | 218 | 3.5 | 6.1 | 0.00 | 0.00 | 0.00 | 58 | 988.1 |
| 20260505191932 | 85 | 248 | 3.5 | 4.3 | 0.00 | 0.00 | 0.00 | 58 | 988.1 |
| 20260505191431 | 84 | 219 | 2.6 | 4.3 | 0.00 | 0.00 | 0.00 | 58 | 988.1 |
| 20260505190931 | 84 | 246 | 4.3 | 6.1 | 0.00 | 0.00 | 0.00 | 60 | 988.1 |
| 20260505190431 | 84 | 178 | 4.3 | 7.0 | 0.00 | 0.00 | 0.00 | 59 | 988.1 |
| 20260505185931 | 84 | 222 | 4.3 | 5.2 | 0.00 | 0.00 | 0.00 | 60 | 988.1 |
| 20260505185432 | 84 | 260 | 2.6 | 5.2 | 0.00 | 0.00 | 0.00 | 60 | 988.1 |
| 20260505184932 | 84 | 237 | 2.6 | 6.1 | 0.00 | 0.00 | 0.00 | 60 | 988.1 |
| 20260505184431 | 83 | 262 | 1.7 | 7.8 | 0.00 | 0.00 | 0.00 | 62 | 988.1 |
| 20260505183931 | 83 | 214 | 3.5 | 7.0 | 0.00 | 0.00 | 0.00 | 62 | 988.1 |
| 20260505183431 | 82 | 284 | 1.7 | 6.1 | 0.00 | 0.00 | 0.00 | 63 | 988.1 |
| 20260505182932 | 82 | 212 | 5.2 | 7.0 | 0.00 | 0.00 | 0.00 | 62 | 988.5 |
| 20260505182431 | 82 | 238 | 2.6 | 6.1 | 0.00 | 0.00 | 0.00 | 62 | 988.1 |
| 20260505181931 | 82 | 263 | 1.7 | 7.8 | 0.00 | 0.00 | 0.00 | 62 | 988.1 |
| 20260505181434 | 82 | 157 | 3.5 | 7.0 | 0.00 | 0.00 | 0.00 | 63 | 988.1 |
| 20260505180932 | 82 | 237 | 2.6 | 4.3 | 0.00 | 0.00 | 0.00 | 64 | 988.1 |
| 20260505180432 | 82 | 233 | 2.6 | 4.3 | 0.00 | 0.00 | 0.00 | 63 | 988.5 |
| 20260505175932 | 82 | 240 | 2.6 | 4.3 | 0.00 | 0.00 | 0.00 | 64 | 988.1 |
| 20260505175431 | 82 | 264 | 2.6 | 5.2 | 0.00 | 0.00 | 0.00 | 64 | 988.1 |
| 20260505174931 | 82 | 241 | 0.9 | 6.1 | 0.00 | 0.00 | 0.00 | 63 | 988.1 |
| 20260505174431 | 82 | 236 | 3.5 | 7.8 | 0.00 | 0.00 | 0.00 | 63 | 988.1 |
| 20260505173931 | 82 | 213 | 3.5 | 8.7 | 0.00 | 0.00 | 0.00 | 63 | 988.1 |
| 20260505173432 | 81 | 192 | 0.9 | 6.1 | 0.00 | 0.00 | 0.00 | 64 | 988.1 |
| 20260505172932 | 81 | 256 | 3.5 | 6.1 | 0.00 | 0.00 | 0.00 | 64 | 988.1 |
| 20260505172431 | 81 | 195 | 4.3 | 5.2 | 0.00 | 0.00 | 0.00 | 65 | 988.5 |
| 20260505171932 | 81 | 257 | 3.5 | 7.0 | 0.00 | 0.00 | 0.00 | 64 | 988.1 |
| 20260505171432 | 81 | 221 | 2.6 | 7.0 | 0.00 | 0.00 | 0.00 | 64 | 988.1 |
| 20260505170931 | 80 | 215 | 4.3 | 4.3 | 0.00 | 0.00 | 0.00 | 66 | 988.5 |
| 20260505170432 | 80 | 269 | 1.7 | 4.3 | 0.00 | 0.00 | 0.00 | 66 | 988.1 |
| 20260505165931 | 80 | 238 | 3.5 | 7.0 | 0.00 | 0.00 | 0.00 | 67 | 988.5 |
| 20260505165432 | 79 | 209 | 2.6 | 5.2 | 0.00 | 0.00 | 0.00 | 68 | 988.5 |
| 20260505164932 | 79 | 210 | 2.6 | 7.0 | 0.00 | 0.00 | 0.00 | 68 | 988.5 |
| 20260505164431 | 79 | 236 | 1.7 | 7.0 | 0.00 | 0.00 | 0.00 | 68 | 988.5 |
| 20260505163932 | 79 | 227 | 3.5 | 6.1 | 0.00 | 0.00 | 0.00 | 68 | 988.5 |
| 20260505163431 | 78 | 231 | 3.5 | 3.5 | 0.00 | 0.00 | 0.00 | 70 | 988.1 |
| 20260505162931 | 78 | 212 | 3.5 | 8.7 | 0.00 | 0.00 | 0.00 | 69 | 988.1 |
| 20260505162433 | 79 | 190 | 3.5 | 7.8 | 0.00 | 0.00 | 0.00 | 69 | 988.1 |
| 20260505161932 | 79 | 160 | 3.5 | 8.7 | 0.00 | 0.00 | 0.00 | 68 | 988.1 |
| 20260505161431 | 78 | 271 | 0.9 | 6.1 | 0.00 | 0.00 | 0.00 | 69 | 987.8 |
| 20260505160931 | 78 | 220 | 4.3 | 8.7 | 0.00 | 0.00 | 0.00 | 70 | 988.1 |
| 20260505160431 | 78 | 272 | 1.7 | 7.0 | 0.00 | 0.00 | 0.00 | 70 | 988.1 |
| 20260505152931 | 76 | 137 | 1.7 | 6.1 | 0.00 | 0.00 | 0.00 | 74 | 988.1 |
| 20260505152431 | 75 | 211 | 2.6 | 4.3 | 0.00 | 0.00 | 0.00 | 75 | 988.1 |
| 20260505151932 | 76 | 215 | 2.6 | 6.1 | 0.00 | 0.00 | 0.00 | 75 | 988.1 |
| 20260505151432 | 76 | 236 | 3.5 | 6.1 | 0.00 | 0.00 | 0.00 | 74 | 988.1 |
| 20260505150931 | 76 | 197 | 1.7 | 7.8 | 0.00 | 0.00 | 0.00 | 73 | 987.8 |
| 20260505150432 | 75 | 207 | 4.3 | 4.3 | 0.00 | 0.00 | 0.00 | 76 | 988.1 |
| 20260505140432 | 73 | 334 | 0.9 | 11.3 | 0.00 | 0.00 | 0.00 | 81 | 987.8 |
| 20260505124931 | 71 | 214 | 2.6 | 13.0 | 0.00 | 0.00 | 0.00 | 85 | 987.8 |
| 20260505124434 | 71 | 127 | 2.6 | 6.1 | 0.00 | 0.00 | 0.00 | 85 | 987.5 |
| 20260505123932 | 71 | 151 | 3.5 | 6.1 | 0.00 | 0.00 | 0.00 | 85 | 987.5 |
| 20260505123431 | 71 | 151 | 3.5 | 6.1 | 0.00 | 0.00 | 0.00 | 85 | 987.5 |
| 20260505122931 | 71 | 201 | 4.3 | 7.8 | 0.00 | 0.00 | 0.00 | 85 | 987.5 |
| 20260505122432 | 71 | 204 | 6.1 | 8.7 | 0.00 | 0.00 | 0.00 | 85 | 987.1 |
| 20260505121932 | 71 | 163 | 1.7 | 6.1 | 0.00 | 0.00 | 0.00 | 85 | 987.5 |
| 20260505121431 | 71 | 172 | 2.6 | 6.1 | 0.00 | 0.00 | 0.00 | 85 | 987.1 |
| 20260505120934 | 71 | 229 | 2.6 | 6.1 | 0.00 | 0.00 | 0.00 | 85 | 987.1 |
| 20260505120432 | 71 | 148 | 0.9 | 5.2 | 0.00 | 0.00 | 0.00 | 85 | 987.1 |
| 20260505115932 | 71 | 178 | 7.0 | 7.8 | 0.00 | 0.00 | 0.00 | 85 | 987.1 |
| 20260505115432 | 71 | 175 | 4.3 | 4.3 | 0.00 | 0.00 | 0.00 | 85 | 987.1 |
| 20260505114933 | 71 | 201 | 4.3 | 9.6 | 0.00 | 0.00 | 0.00 | 85 | 987.1 |
| 20260505114431 | 71 | 176 | 2.6 | 4.3 | 0.00 | 0.00 | 0.00 | 85 | 987.1 |
| 20260505113445 | 71 | 144 | 2.6 | 7.8 | 0.00 | 0.00 | 0.00 | 85 | 986.8 |
| 20260505112931 | 71 | 162 | 3.5 | 6.1 | 0.00 | 0.00 | 0.00 | 84 | 986.8 |
| 20260505112431 | 71 | 162 | 4.3 | 7.8 | 0.00 | 0.00 | 0.00 | 85 | 987.1 |
| 20260505111932 | 71 | 186 | 0.0 | 5.2 | 0.00 | 0.00 | 0.00 | 84 | 986.8 |
| 20260505111431 | 71 | 189 | 2.6 | 7.0 | 0.00 | 0.00 | 0.00 | 85 | 986.8 |
| 20260505110931 | 71 | 146 | 2.6 | 4.3 | 0.00 | 0.00 | 0.00 | 85 | 986.8 |
| 20260505110431 | 71 | 258 | 1.7 | 5.2 | 0.00 | 0.00 | 0.00 | 85 | 986.8 |
| 20260505101931 | 71 | 141 | 7.0 | 11.3 | 0.00 | 0.00 | 0.00 | 83 | 986.8 |
| 20260505101431 | 71 | 183 | 4.3 | 7.8 | 0.00 | 0.00 | 0.00 | 83 | 986.8 |
| 20260505100931 | 71 | 199 | 2.6 | 8.7 | 0.00 | 0.00 | 0.00 | 83 | 986.8 |
| 20260505100433 | 71 | 225 | 2.6 | 11.3 | 0.00 | 0.00 | 0.00 | 83 | 986.8 |
| 20260505095931 | 71 | 208 | 3.5 | 4.3 | 0.00 | 0.00 | 0.00 | 83 | 987.1 |
| 20260505095434 | 71 | 205 | 1.7 | 9.6 | 0.00 | 0.00 | 0.00 | 83 | 987.1 |
| 20260505094932 | 71 | 176 | 2.6 | 6.1 | 0.00 | 0.00 | 0.00 | 83 | 986.8 |
| 20260505094432 | 71 | 212 | 7.0 | 12.2 | 0.00 | 0.00 | 0.00 | 82 | 986.8 |
| 20260505093931 | 71 | 177 | 4.3 | 9.6 | 0.00 | 0.00 | 0.00 | 82 | 986.8 |
| 20260505093433 | 72 | 192 | 2.6 | 7.8 | 0.00 | 0.00 | 0.00 | 82 | 987.1 |
| 20260505092933 | 72 | 173 | 4.3 | 6.1 | 0.00 | 0.00 | 0.00 | 82 | 987.1 |
| 20260505092432 | 72 | 207 | 1.7 | 8.7 | 0.00 | 0.00 | 0.00 | 81 | 987.1 |
| 20260505091448 | 72 | 215 | 4.3 | 7.0 | 0.00 | 0.00 | 0.00 | 81 | 987.1 |
| 20260505090933 | 72 | 137 | 3.5 | 9.6 | 0.00 | 0.00 | 0.00 | 81 | 987.1 |
| 20260505090437 | 72 | 236 | 1.7 | 10.4 | 0.00 | 0.00 | 0.00 | 81 | 987.5 |
| 20260505085931 | 72 | 187 | 2.6 | 7.8 | 0.00 | 0.00 | 0.00 | 81 | 987.5 |
| 20260505085432 | 72 | 153 | 1.7 | 6.1 | 0.00 | 0.00 | 0.00 | 80 | 987.5 |
| 20260505084933 | 72 | 187 | 4.3 | 9.6 | 0.00 | 0.00 | 0.00 | 80 | 987.1 |
| 20260505083943 | 72 | 207 | 4.3 | 6.1 | 0.00 | 0.00 | 0.00 | 79 | 987.5 |
| 20260505083431 | 72 | 173 | 1.7 | 7.8 | 0.00 | 0.00 | 0.00 | 79 | 987.5 |
| 20260505082932 | 72 | 151 | 7.8 | 8.7 | 0.00 | 0.00 | 0.00 | 79 | 987.5 |
| 20260505082431 | 72 | 214 | 2.6 | 9.6 | 0.00 | 0.00 | 0.00 | 79 | 987.5 |
| 20260505081931 | 72 | 180 | 3.5 | 7.0 | 0.00 | 0.00 | 0.00 | 79 | 987.5 |
| 20260505081432 | 72 | 149 | 3.5 | 5.2 | 0.00 | 0.00 | 0.00 | 79 | 987.5 |
| 20260505080933 | 73 | 201 | 2.6 | 6.1 | 0.00 | 0.00 | 0.00 | 78 | 987.5 |
| 20260505080432 | 73 | 170 | 4.3 | 7.0 | 0.00 | 0.00 | 0.00 | 78 | 987.5 |
| 20260505075934 | 73 | 169 | 6.1 | 6.1 | 0.00 | 0.00 | 0.00 | 78 | 987.5 |
| 20260505075432 | 73 | 165 | 3.5 | 6.1 | 0.00 | 0.00 | 0.00 | 77 | 987.8 |
| 20260505074933 | 73 | 187 | 1.7 | 6.1 | 0.00 | 0.00 | 0.00 | 77 | 987.5 |
| 20260505074431 | 73 | 146 | 0.0 | 7.0 | 0.00 | 0.00 | 0.00 | 77 | 987.5 |
| 20260505073932 | 73 | 183 | 2.6 | 6.1 | 0.00 | 0.00 | 0.00 | 76 | 987.8 |
| 20260505073431 | 73 | 152 | 6.1 | 7.8 | 0.00 | 0.00 | 0.00 | 76 | 987.8 |
| 20260505072932 | 73 | 137 | 2.6 | 6.1 | 0.00 | 0.00 | 0.00 | 75 | 988.1 |
| 20260505072431 | 73 | 170 | 2.6 | 8.7 | 0.00 | 0.00 | 0.00 | 75 | 988.1 |
| 20260505071932 | 73 | 133 | 7.8 | 7.8 | 0.00 | 0.00 | 0.00 | 75 | 988.1 |
| 20260505071431 | 73 | 173 | 3.5 | 6.1 | 0.00 | 0.00 | 0.00 | 75 | 988.1 |
| 20260505070933 | 73 | 173 | 2.6 | 7.0 | 0.00 | 0.00 | 0.00 | 75 | 988.1 |
| 20260505070432 | 73 | 194 | 3.5 | 5.2 | 0.00 | 0.00 | 0.00 | 74 | 988.1 |
| 20260505065931 | 73 | 163 | 4.3 | 5.2 | 0.00 | 0.00 | 0.00 | 74 | 988.5 |
| 20260505065431 | 74 | 162 | 2.6 | 5.2 | 0.00 | 0.00 | 0.00 | 73 | 988.5 |
| 20260505064932 | 74 | 176 | 2.6 | 7.0 | 0.00 | 0.00 | 0.00 | 73 | 988.5 |
| 20260505064431 | 74 | 177 | 2.6 | 6.1 | 0.00 | 0.00 | 0.00 | 73 | 988.5 |
| 20260505063933 | 74 | 204 | 2.6 | 5.2 | 0.00 | 0.00 | 0.00 | 72 | 988.5 |
| 20260505063431 | 74 | 175 | 1.7 | 6.1 | 0.00 | 0.00 | 0.00 | 72 | 988.8 |
| 20260505062932 | 74 | 162 | 1.7 | 7.8 | 0.00 | 0.00 | 0.00 | 71 | 988.8 |
| 20260505062431 | 74 | 164 | 3.5 | 7.0 | 0.00 | 0.00 | 0.00 | 71 | 988.8 |
| 20260505061931 | 74 | 172 | 5.2 | 7.8 | 0.00 | 0.00 | 0.00 | 70 | 988.5 |
| 20260505061431 | 75 | 179 | 3.5 | 7.0 | 0.00 | 0.00 | 0.00 | 70 | 988.5 |
| 20260505060931 | 75 | 168 | 3.5 | 7.8 | 0.00 | 0.00 | 0.00 | 69 | 988.8 |
| 20260505060431 | 75 | 196 | 2.6 | 9.6 | 0.00 | 0.00 | 0.00 | 69 | 988.5 |
| 20260505055932 | 75 | 224 | 2.6 | 7.0 | 0.00 | 0.00 | 0.00 | 69 | 988.8 |
| 20260505055432 | 75 | 194 | 5.2 | 8.7 | 0.00 | 0.00 | 0.00 | 68 | 988.8 |
| 20260505054932 | 75 | 133 | 4.3 | 6.1 | 0.00 | 0.00 | 0.00 | 69 | 988.5 |
| 20260505054431 | 75 | 199 | 1.7 | 7.8 | 0.00 | 0.00 | 0.00 | 69 | 988.5 |
| 20260505053931 | 75 | 156 | 7.0 | 7.8 | 0.00 | 0.00 | 0.00 | 69 | 988.5 |
| 20260505053431 | 75 | 183 | 3.5 | 9.6 | 0.00 | 0.00 | 0.00 | 69 | 988.5 |
| 20260505052932 | 75 | 185 | 3.5 | 7.0 | 0.00 | 0.00 | 0.00 | 69 | 988.5 |
| 20260505052431 | 75 | 147 | 1.7 | 7.8 | 0.00 | 0.00 | 0.00 | 69 | 988.5 |
| 20260505051931 | 75 | 168 | 1.7 | 9.6 | 0.00 | 0.00 | 0.00 | 69 | 988.5 |
| 20260505051431 | 75 | 194 | 4.3 | 7.8 | 0.00 | 0.00 | 0.00 | 69 | 988.5 |
| 20260505050931 | 75 | 142 | 5.2 | 6.1 | 0.00 | 0.00 | 0.00 | 69 | 988.8 |
| 20260505050431 | 75 | 168 | 1.7 | 7.0 | 0.00 | 0.00 | 0.00 | 69 | 988.8 |
| 20260505041432 | 75 | 192 | 3.5 | 10.4 | 0.00 | 0.00 | 0.00 | 68 | 988.8 |
| 20260505040931 | 75 | 176 | 5.2 | 7.0 | 0.00 | 0.00 | 0.00 | 68 | 988.8 |
| 20260505040432 | 75 | 185 | 4.3 | 8.7 | 0.00 | 0.00 | 0.00 | 68 | 989.2 |
| 20260505035932 | 75 | 185 | 4.3 | 9.6 | 0.00 | 0.00 | 0.00 | 68 | 989.2 |
| 20260505035432 | 76 | 148 | 4.3 | 13.0 | 0.00 | 0.00 | 0.00 | 67 | 989.2 |
| 20260505034931 | 76 | 142 | 6.1 | 12.2 | 0.00 | 0.00 | 0.00 | 67 | 989.2 |
| 20260505034432 | 76 | 179 | 3.5 | 8.7 | 0.00 | 0.00 | 0.00 | 67 | 989.2 |
| 20260505033932 | 76 | 184 | 3.5 | 9.6 | 0.00 | 0.00 | 0.00 | 67 | 989.2 |
| 20260505033431 | 76 | 148 | 3.5 | 9.6 | 0.00 | 0.00 | 0.00 | 67 | 989.2 |
| 20260505032932 | 76 | 182 | 4.3 | 9.6 | 0.00 | 0.00 | 0.00 | 67 | 988.8 |
| 20260505032432 | 76 | 195 | 8.7 | 17.4 | 0.00 | 0.00 | 0.00 | 66 | 988.8 |
| 20260505031931 | 76 | 195 | 9.6 | 10.4 | 0.00 | 0.00 | 0.00 | 67 | 988.8 |
| 20260505031431 | 76 | 183 | 2.6 | 13.0 | 0.00 | 0.00 | 0.00 | 67 | 988.8 |
| 20260505030931 | 76 | 157 | 7.8 | 9.6 | 0.00 | 0.00 | 0.00 | 67 | 989.2 |
| 20260505030432 | 76 | 169 | 2.6 | 11.3 | 0.00 | 0.00 | 0.00 | 66 | 989.2 |
| 20260505025931 | 76 | 139 | 5.2 | 10.4 | 0.00 | 0.00 | 0.00 | 66 | 988.8 |
| 20260505025432 | 76 | 148 | 7.0 | 10.4 | 0.00 | 0.00 | 0.00 | 66 | 988.8 |
| 20260505024931 | 76 | 184 | 3.5 | 7.8 | 0.00 | 0.00 | 0.00 | 66 | 989.2 |